TimeCST,TemperatureF,Dew PointF,Humidity,Sea Level PressureIn,VisibilityMPH,Wind Direction,Wind SpeedMPH,Gust SpeedMPH,PrecipitationIn,Events,Conditions,WindDirDegrees,DateUTC
12:52 AM,50.0,46.9,89,29.86,7.0,East,11.5,-,0.00,,Overcast,100,2012-11-10 06:52:00
1:52 AM,50.0,48.0,93,29.85,7.0,ESE,9.2,-,N/A,,Mostly Cloudy,110,2012-11-10 07:52:00
2:52 AM,50.0,48.0,93,29.84,6.0,ESE,8.1,-,N/A,,Mostly Cloudy,110,2012-11-10 08:52:00
3:52 AM,53.1,51.1,93,29.82,9.0,SE,10.4,-,N/A,,Partly Cloudy,140,2012-11-10 09:52:00
4:52 AM,55.0,52.0,89,29.82,10.0,SSE,13.8,-,N/A,,Clear,150,2012-11-10 10:52:00
5:52 AM,55.0,52.0,89,29.80,10.0,SE,13.8,23.0,N/A,,Partly Cloudy,140,2012-11-10 11:52:00
6:52 AM,54.0,52.0,93,29.79,10.0,SSE,13.8,-,N/A,,Clear,150,2012-11-10 12:52:00
7:52 AM,55.0,51.1,86,29.79,10.0,SSE,18.4,24.2,N/A,,Scattered Clouds,150,2012-11-10 13:52:00
8:52 AM,55.9,52.0,87,29.78,10.0,SSE,12.7,23.0,0.01,,Partly Cloudy,150,2012-11-10 14:52:00
9:52 AM,59.0,53.1,81,29.77,10.0,SSE,17.3,24.2,N/A,,Clear,160,2012-11-10 15:52:00
10:52 AM,64.9,54.0,68,29.74,10.0,South,18.4,28.8,N/A,,Clear,170,2012-11-10 16:52:00
11:52 AM,68.0,55.0,63,29.71,10.0,South,19.6,-,N/A,,Clear,180,2012-11-10 17:52:00
12:52 PM,71.1,55.9,59,29.69,10.0,South,19.6,28.8,N/A,,Clear,180,2012-11-10 18:52:00
1:52 PM,72.0,55.9,57,29.70,10.0,SSW,21.9,31.1,N/A,,Partly Cloudy,200,2012-11-10 19:52:00
2:52 PM,69.1,55.9,63,29.71,10.0,South,17.3,25.3,0.00,,Scattered Clouds,180,2012-11-10 20:52:00
3:52 PM,68.0,55.9,65,29.70,10.0,South,16.1,26.5,0.00,,Partly Cloudy,180,2012-11-10 21:52:00
4:52 PM,66.0,55.0,68,29.67,10.0,SSE,16.1,-,N/A,,Partly Cloudy,150,2012-11-10 22:52:00
5:52 PM,64.9,54.0,68,29.69,10.0,SSE,17.3,23.0,N/A,,Clear,160,2012-11-10 23:52:00
6:52 PM,64.0,53.1,67,29.68,10.0,SSE,16.1,-,N/A,,Clear,160,2012-11-11 00:52:00
7:52 PM,64.9,51.1,61,29.68,10.0,South,18.4,26.5,N/A,,Clear,170,2012-11-11 01:52:00
8:52 PM,64.0,48.0,56,29.65,10.0,South,20.7,32.2,N/A,,Clear,170,2012-11-11 02:52:00
9:52 PM,64.9,46.0,50,29.66,10.0,South,20.7,33.4,N/A,,Clear,180,2012-11-11 03:52:00
10:52 PM,64.0,46.0,52,29.67,10.0,South,21.9,35.7,N/A,,Partly Cloudy,180,2012-11-11 04:52:00
11:52 PM,62.1,48.0,60,29.69,10.0,South,26.5,35.7,N/A,,Clear,180,2012-11-11 05:52:00